RH
66 61 53 52 72 89 87 92 98 96 99 84 77 62 62 66 65 62 63 62 60 57 56 54 54 52 51 55 54 53 49 52 58 61 65 65 68 63 60 70 81 93 97 97
76 54 50 88 92 90 82 84 91 90 98 76 57 54 60 58 57 59 61 59 56 50 44 47 46 49 50 52 53 52 52 51 50 57 58 66 67 66 57 75 80 87 96 97
83 59 70 98 99 92 68 61 67 90 74 56 55 53 60 57 54 56 59 56 46 44 46 45 46 49 51 51 51 52 55 47 46 51 54 60 60 62 66 86 96 92 96 97
92 81 97 98 76 75 85 61 63 57 63 52 51 52 54 51 54 55 51 45 44 46 45 46 47 47 47 45 47 53 53 52 41 44 45 48 52 58 87 96 96 92 97 97
98 95 95 99 92 92 94 75 66 72 51 47 48 49 50 48 52 56 55 51 50 48 47 48 45 43 42 44 46 50 56 56 56 41 41 44 49 54 61 81 95 94 96 97
92 97 98 100 87 74 74 90 73 72 64 48 45 66 61 57 54 54 47 43 44 44 47 46 46 44 45 50 47 49 53 51 48 54 42 46 52 56 62 68 70 63 73 97
98 98 99 92 76 69 89 97 80 67 68 53 49 51 57 53 54 47 41 40 41 42 47 46 42 42 48 46 36 36 36 34 37 43 39 48 53 55 58 64 60 67 76 96
94 97 98 77 80 94 86 80 69 71 72 56 56 53 54 51 50 43 42 40 39 46 46 43 38 40 44 46 46 42 36 38 42 48 46 46 55 59 56 59 58 64 80 92
89 88 86 76 78 70 73 75 71 75 72 58 52 52 51 52 50 45 39 40 39 45 46 43 39 40 43 46 47 50 54 56 57 64 67 71 71 66 66 60 60 62 88 93
76 77 76 68 64 69 67 70 66 66 67 50 55 52 52 51 51 43 39 38 42 44 45 45 41 37 40 41 46 52 59 60 62 68 70 73 78 81 74 72 69 68 71 88
80 74 76 66 65 66 66 66 65 64 63 47 51 50 50 54 49 44 40 40 42 46 46 42 38 37 36 42 47 51 59 66 77 79 83 79 73 89 78 61 77 74 78 70
96 77 89 83 68 66 71 69 66 70 66 49 45 46 47 54 47 42 45 44 45 45 44 40 36 36 39 44 46 54 60 69 80 84 85 80 77 63 60 72 69 67 67 70
91 77 78 79 76 68 68 69 67 67 64 49 47 44 48 50 50 57 47 43 44 45 44 41 38 38 44 47 48 55 64 71 79 82 82 82 78 76 67 56 57 61 66 60
81 82 86 77 81 75 73 68 65 56 45 43 43 45 52 49 55 49 44 42 45 45 46 44 41 43 51 54 59 72 78 87 84 90 90 89 81 81 78 77 72 66 55 60
79 74 78 80 80 75 68 65 49 44 46 48 46 52 53 53 60 60 54 42 42 49 51 50 45 48 51 60 64 73 78 83 86 89 89 90 88 78 78 75 74 66 59 57
86 84 82 85 82 76 71 60 52 50 50 54 56 57 55 57 67 64 50 48 46 52 54 56 54 56 58 64 75 82 78 86 87 86 86 87 89 78 75 78 79 76 69 73
98 83 80 82 78 75 70 66 59 49 57 56 57 61 63 69 71 64 54 52 55 58 59 59 60 63 66 73 75 86 84 84 89 86 87 87 88 88 81 82 85 86 86 87
71 79 75 78 79 75 76 74 57 57 57 59 64 67 73 74 68 68 63 61 60 64 61 58 64 71 71 74 79 86 85 85 86 85 86 85 87 86 84 83 85 90 94 87
67 74 86 81 79 78 80 76 62 59 66 69 71 69 71 74 72 71 72 71 72 63 65 66 81 76 74 80 82 87 87 85 86 87 87 89 85 83 88 91 88 94 95 91
70 70 78 82 82 85 86 82 69 74 74 74 79 79 81 97 86 79 73 65 60 63 68 70 70 72 76 88 90 86 86 87 88 88 88 85 89 95 92 90 91 94 99 96
75 70 73 80 81 84 88 88 82 78 81 82 77 80 81 92 94 84 74 74 69 74 71 78 66 72 81 92 93 88 87 88 94 90 94 94 95 94 94 96 99 99 99 99
72 71 70 75 74 82 84 85 81 86 93 99 100 100 99 89 99 86 78 73 77 90 82 75 74 77 77 92 94 92 89 85 88 91 96 95 94 99 96 99 99 99 99 99
75 70 66 69 71 74 76 81 88 88 91 99 98 98 89 88 91 88 84 76 81 89 79 79 81 84 84 88 93 92 92 92 92 92 95 95 98 99 98 98 99 99 100 100
85 77 69 67 63 70 76 77 80 83 93 87 82 86 83 86 88 91 86 86 90 92 86 84 87 84 84 90 91 92 93 93 93 94 95 98 99 99 99 98 99 100 99 100
77 79 67 65 66 68 73 77 82 85 83 93 94 96 96 97 94 96 94 89 92 91 89 92 85 83 87 90 90 89 91 94 93 93 94 98 99 100 100 98 97 96 95 96
63 58 69 68 68 66 73 80 87 93 89 90 95 97 97 97 98 98 98 99 93 92 89 96 91 89 90 90 89 88 89 92 93 92 92 96 99 99 98 98 97 94 95 97
56 71 70 67 66 68 76 81 86 91 94 94 93 97 98 98 98 98 97 99 100 100 99 99 98 92 89 90 90 90 90 90 92 91 92 93 95 95 96 98 96 96 94 94
Wind_Speed
10 13 10 14 12 11 6 5 2 4 3 10 3 12 9 9 8 7 7 7 6 5 5 5 5 5 6 6 6 5 7 7 8 10 10 11 12 11 12 10 10 12 13 14
4 3 4 7 12 15 11 9 3 4 2 8 6 9 7 10 8 7 7 7 6 6 6 5 4 5 6 6 6 6 8 10 11 11 12 12 12 12 13 14 13 14 13 14
5 10 6 4 13 17 8 10 4 3 5 5 6 8 7 7 7 6 8 7 8 7 5 4 5 6 5 6 6 7 8 12 13 13 12 12 12 13 14 15 14 14 15 15
4 7 4 4 12 13 13 21 24 19 8 7 7 5 6 5 6 8 10 10 8 6 4 5 5 5 5 6 6 7 9 12 13 14 13 13 13 13 14 12 14 13 14 16
2 2 3 3 10 12 9 11 21 21 7 7 6 5 5 5 6 8 9 6 6 5 5 6 6 5 7 6 6 8 10 11 11 12 13 14 14 13 12 11 13 13 13 16
3 3 4 2 16 20 11 4 22 20 18 4 6 4 2 9 12 12 10 8 7 7 7 7 4 6 6 6 8 10 9 9 10 11 13 14 13 13 12 11 11 12 14 14
3 2 3 7 23 16 5 6 22 20 17 8 4 3 8 12 10 11 10 9 6 7 7 6 6 6 6 6 9 6 7 8 10 11 11 12 12 10 13 13 12 13 14 14
4 3 2 13 13 6 5 12 15 17 16 6 12 15 13 12 12 12 10 7 7 7 6 4 6 6 6 6 3 4 5 6 8 9 9 10 13 14 14 13 14 16 16 14
1 4 4 8 9 11 9 10 15 17 19 2 13 14 13 11 10 10 9 6 6 7 6 4 5 5 5 2 3 4 5 7 7 7 9 10 12 14 13 15 14 14 13 13
4 3 11 16 12 5 9 14 17 14 14 6 12 12 11 10 9 8 6 6 6 7 6 4 4 5 4 4 4 5 6 6 6 7 9 9 8 9 12 14 14 14 13 14
5 5 16 5 7 12 19 19 18 17 16 7 15 12 12 8 9 8 6 5 7 7 6 5 5 5 4 5 5 5 6 6 6 6 7 8 8 5 9 12 14 13 13 12
3 7 5 16 17 19 19 20 19 15 15 4 15 13 10 9 9 9 7 6 6 6 6 5 5 4 4 4 5 5 5 5 5 5 6 7 7 8 11 13 21 27 28 19
6 13 17 21 20 22 16 16 20 15 13 8 7 13 9 10 7 8 7 8 7 7 6 6 6 5 4 4 6 5 5 5 4 5 6 8 7 8 9 12 16 22 29 31
13 12 14 9 8 20 18 21 18 12 7 12 10 8 9 10 7 9 9 8 7 7 6 6 6 5 5 5 6 6 6 5 4 4 4 5 6 7 7 9 10 12 15 22
8 9 14 17 18 19 15 15 6 10 8 7 8 10 11 11 9 8 7 8 7 7 6 6 6 4 6 6 6 5 4 3 4 4 4 5 5 6 7 8 9 9 9 12
16 12 12 12 15 16 13 10 6 5 7 6 9 9 10 10 8 8 7 9 10 7 7 7 6 5 5 6 6 5 4 4 4 4 4 5 5 6 7 8 8 8 9 10
6 5 3 5 6 10 9 8 3 4 6 9 8 8 9 8 7 7 7 6 7 7 7 8 7 6 5 6 6 4 3 3 4 4 5 4 4 5 4 6 6 7 7 7
13 5 7 6 6 8 9 8 2 7 6 8 8 8 9 9 10 8 7 7 6 4 6 7 7 7 6 6 5 4 4 3 3 3 3 4 4 4 4 4 5 5 5 7
15 13 9 7 5 5 6 6 4 5 7 8 8 8 7 7 7 7 7 7 6 7 6 6 7 7 7 7 6 5 4 3 2 2 2 3 4 3 4 3 3 4 4 5
19 15 11 9 8 7 7 6 6 7 5 6 7 7 7 3 4 8 7 9 9 5 7 8 7 6 6 7 6 5 5 5 4 2 1 2 3 2 2 3 3 3 3 3
19 17 13 10 8 7 7 7 6 6 5 5 4 6 7 5 4 6 6 4 5 6 7 9 7 5 4 5 5 5 5 5 4 5 3 2 0 1 2 3 3 3 3 2
17 15 15 10 9 8 8 6 6 5 5 4 4 4 4 4 3 3 2 4 3 7 5 5 5 7 6 8 5 5 5 5 5 4 3 4 4 2 2 2 2 2 2 1
14 14 15 11 7 6 7 8 7 5 5 3 3 3 2 2 4 4 3 3 3 6 5 5 7 9 10 6 5 5 5 4 4 4 4 4 4 4 5 4 3 3 3 3
9 14 12 11 6 7 8 7 7 8 7 5 4 1 1 2 2 4 4 4 4 6 6 6 8 10 9 5 5 5 5 5 5 4 3 4 4 5 5 6 5 4 4 4
3 6 11 10 6 4 6 6 5 6 7 6 6 6 7 5 2 4 2 3 3 5 5 6 9 10 6 5 6 6 6 5 5 5 5 5 6 6 4 5 4 4 6 5
6 6 6 9 4 4 3 4 3 4 4 4 4 4 4 5 5 5 6 7 5 2 3 2 4 5 5 6 6 6 6 6 6 6 6 6 6 6 5 4 3 7 6 4
5 5 3 4 1 3 3 3 3 4 4 4 3 4 4 5 5 5 6 5 4 4 3 3 1 4 5 5 6 6 5 5 7 7 7 7 6 6 6 5 7 7 7 7
Wind_Direction
280 270 269 263 312 342 321 201 211 310 218 280 275 155 151 141 134 141 128 120 126 122 100 84 61 34 31 24 14 346 333 329 328 320 320 335 340 345 338 354 359 339 340 329
301 284 280 72 354 17 60 47 16 324 278 247 91 109 124 140 141 150 129 127 119 103 94 82 68 48 38 22 5 355 330 346 348 341 344 345 345 345 357 359 348 346 344 337
284 324 335 63 357 353 53 34 299 287 221 126 113 130 143 145 149 150 122 120 105 101 102 90 54 68 48 27 7 349 345 2 2 356 354 349 347 352 3 359 342 349 350 345
293 325 56 332 347 346 326 28 14 11 122 134 136 139 137 145 135 122 114 115 110 111 102 64 70 62 52 30 356 350 14 12 8 359 357 353 358 359 352 347 351 349 349 354
19 301 201 347 356 339 349 5 9 357 15 102 102 71 35 111 127 115 120 115 124 120 89 88 80 61 53 22 357 24 21 12 1 4 359 356 359 352 349 350 351 355 353 358
326 320 18 326 322 322 302 334 345 351 340 161 121 104 246 122 113 104 111 120 117 102 95 92 67 66 50 18 28 31 17 8 0 353 3 357 349 351 349 352 357 0 7 6
307 316 286 344 330 315 64 322 316 335 325 276 157 181 132 117 101 113 124 121 111 98 109 117 93 77 59 48 46 32 31 22 15 1 5 353 350 358 358 352 5 13 20 12
328 324 355 7 339 44 309 295 320 325 321 301 114 111 119 121 121 122 122 119 116 105 113 108 98 89 78 69 56 49 36 34 19 4 359 357 1 0 3 6 13 21 21 20
165 257 275 297 291 294 298 310 314 321 323 224 112 116 127 128 126 129 132 132 111 116 112 100 106 104 98 123 78 47 37 24 5 349 0 351 0 2 12 11 18 24 22 22
337 204 331 308 310 311 316 310 313 314 309 244 119 127 128 127 126 130 134 130 115 117 118 116 111 106 115 96 75 50 35 22 358 359 357 355 0 9 16 16 15 19 25 26
276 350 327 304 312 320 319 318 320 325 327 203 127 140 140 130 136 138 140 119 129 132 134 138 123 126 115 97 78 54 45 28 17 9 0 354 355 349 18 29 28 22 22 29
284 322 278 276 299 311 311 308 306 313 319 182 139 148 142 135 145 143 144 128 127 136 136 145 129 132 110 105 88 73 54 34 24 7 353 10 10 6 10 14 18 32 35 39
291 304 285 280 290 292 290 296 295 290 283 155 141 143 135 140 148 139 135 138 147 155 153 144 132 126 119 110 96 83 81 56 36 21 13 17 13 22 20 3 20 21 25 30
287 292 283 280 284 305 295 292 292 273 161 144 138 132 129 137 134 146 157 157 143 143 149 147 139 130 134 108 95 88 80 64 64 40 29 17 21 24 27 29 21 17 10 19
281 269 275 284 289 289 299 310 337 127 123 108 130 130 134 143 149 159 149 143 140 141 147 149 145 146 140 121 108 100 86 76 68 51 39 33 26 31 31 35 36 28 12 18
288 278 272 268 280 293 305 324 14 112 128 116 131 141 153 147 139 144 146 141 144 173 168 158 163 174 147 125 113 95 85 78 62 60 43 37 29 39 35 39 41 33 29 24
315 309 277 284 300 324 312 320 267 137 126 134 145 134 125 126 128 142 155 161 154 163 169 158 178 154 144 136 129 127 116 84 73 51 53 61 52 45 36 47 45 44 38 18
0 294 273 259 293 300 333 351 49 125 146 145 130 125 131 145 161 168 162 139 123 130 177 183 161 150 150 147 138 134 126 117 82 71 52 50 58 67 63 53 40 49 31 23
2 1 358 17 359 359 349 356 11 110 128 135 131 153 160 157 155 159 147 142 153 168 217 180 158 152 158 158 145 140 138 130 101 102 93 88 57 55 75 68 64 56 51 47
359 1 359 3 15 21 3 8 64 67 71 98 105 123 138 166 161 151 156 179 191 195 155 169 167 168 169 159 151 152 157 157 155 155 112 116 120 111 88 97 86 62 49 58
355 353 355 0 4 8 21 26 49 56 50 72 136 164 169 157 195 164 153 184 222 171 163 158 172 175 165 156 162 162 169 173 166 170 165 183 69 77 118 125 96 106 98 76
346 349 347 353 13 14 11 21 50 50 57 64 63 102 117 159 145 250 252 195 191 159 154 170 181 178 170 161 175 177 184 192 192 182 170 165 163 159 179 154 166 181 171 122
346 348 346 348 8 357 11 26 29 46 67 77 97 136 170 199 173 163 234 247 181 178 170 187 190 176 169 174 174 183 191 186 194 192 184 173 165 164 183 182 196 193 183 183
349 339 340 330 5 18 18 11 26 27 46 43 66 104 96 23 319 230 237 246 221 175 198 188 189 186 175 175 179 184 190 192 195 196 189 174 170 190 196 194 191 176 208 200
95 317 326 349 349 17 14 2 25 26 33 26 26 31 31 27 75 327 313 249 235 201 218 204 195 184 184 181 182 191 197 195 196 182 185 188 213 222 205 182 172 185 222 216
339 327 318 318 321 328 47 25 19 13 30 18 16 16 23 16 14 18 17 10 20 315 252 213 194 186 187 190 195 195 193 190 190 199 192 192 203 211 188 179 175 225 219 199
297 303 280 291 345 24 356 43 39 6 18 18 348 5 29 24 20 21 19 1 358 4 6 339 260 203 195 198 205 202 197 199 197 194 194 194 192 194 185 191 223 226 227 225